Weather History for KMDH - August, 2014

Change the Weather History Date:

Friday, August 22, 2014

  Actual Average Record
Temperature  
Mean Temperature 83 °F -  
Max Temperature 91 °F 87 °F 103 °F (1936)
Min Temperature 75 °F 62 °F 47 °F (1940)
Cooling Degree Days 18    
Growing Degree Days 33 (Base 50)    
Moisture  
Dew Point 74 °F    
Average Humidity 76    
Maximum Humidity 88    
Minimum Humidity 59    
Precipitation  
Precipitation 0.00 in - - ()
Sea Level Pressure  
Sea Level Pressure 29.98 in    
Wind  
Wind Speed 7 mph (SSW)    
Max Wind Speed 12 mph    
Max Gust Speed -    
Visibility 10 miles    
Events      
Averages and records for this station are not official NWS values.
T = Trace of Precipitation, MM = Missing Value Source: NWS Daily Summary

Daily Weather History Graph

Daily Weather History Graph

Search for Another Location

Airport or City:

Trip Planner

Search our weather history database for the weather conditions in past years. The results will help you decide how hot, cold, wet, or windy it might be!

Date:

Astronomy

Aug. 22, 2014 Rise Set
Actual Time 6:18 AM CDT 7:40 PM CDT
Civil Twilight 5:51 AM CDT 8:07 PM CDT
Nautical Twilight 5:18 AM CDT 8:40 PM CDT
Astronomical Twilight 4:43 AM CDT 9:15 PM CDT
Moon 3:42 AM CDT (8/22) 5:48 PM CDT (8/22)
Length of Visible Light 14h 16m
Length of Day
13h 21m
Waning Crescent, 7% of the Moon is Illuminated
Aug 22
Waning Crescent
Aug 25
New
Sep 2
First Quarter
Sep 8
Full
Sep 15
Last Quarter

Hourly Weather History & Observations

Time (CDT) Temp. Heat Index Dew Point Humidity Pressure Visibility Wind Dir Wind Speed Gust Speed Precip Events Conditions
12:52 AM 79.0 °F - 72.0 °F 79% 30.00 in 10.0 mi SSW 6.9 mph - N/A   Clear
1:52 AM 78.1 °F - 72.0 °F 81% 29.98 in 10.0 mi SSW 6.9 mph - N/A   Clear
2:52 AM 79.0 °F - 71.1 °F 77% 29.96 in 10.0 mi SW 9.2 mph - N/A   Clear
4:52 AM 75.9 °F - 71.1 °F 85% 29.96 in 10.0 mi WSW 4.6 mph - N/A   Clear
5:52 AM 75.0 °F - 71.1 °F 87% 29.98 in 10.0 mi SSW 6.9 mph - N/A   Clear
6:52 AM 75.0 °F - 71.1 °F 87% 29.99 in 10.0 mi SSW 6.9 mph - N/A   Clear
7:52 AM 78.1 °F - 72.0 °F 81% 30.01 in 10.0 mi SW 9.2 mph - N/A   Clear
8:52 AM 80.1 °F 84.2 °F 73.0 °F 79% 30.02 in 10.0 mi SW 8.1 mph - N/A   Mostly Cloudy
9:52 AM 82.9 °F 89.4 °F 73.9 °F 74% 30.03 in 10.0 mi SW 6.9 mph - N/A   Clear
10:52 AM 84.9 °F 93.3 °F 75.0 °F 72% 30.03 in 10.0 mi SW 9.2 mph - N/A   Mostly Cloudy
11:52 AM 86.0 °F 95.1 °F 75.0 °F 70% 30.02 in 10.0 mi West 4.6 mph - N/A   Clear
12:52 PM 88.0 °F 97.5 °F 75.0 °F 65% 30.01 in 10.0 mi WNW 4.6 mph - N/A   Clear
1:52 PM 89.1 °F 99.1 °F 75.0 °F 63% 29.99 in 10.0 mi WNW 4.6 mph - N/A   Clear
2:52 PM 90.0 °F 99.0 °F 73.9 °F 59% 29.97 in 10.0 mi South 5.8 mph - N/A   Clear
4:52 PM 91.0 °F 101.6 °F 75.0 °F 59% 29.94 in 10.0 mi SSW 11.5 mph - N/A   Clear
5:52 PM 88.0 °F 97.5 °F 75.0 °F 65% 29.93 in 10.0 mi SSW 9.2 mph - N/A   Clear
6:52 PM 87.1 °F 97.3 °F 75.9 °F 69% 29.92 in 10.0 mi SSW 6.9 mph - N/A   Clear
7:52 PM 84.0 °F 92.6 °F 75.9 °F 76% 29.93 in 10.0 mi South 6.9 mph - N/A   Clear
8:52 PM 82.0 °F 89.4 °F 75.9 °F 82% 29.94 in 10.0 mi South 4.6 mph - N/A   Clear
9:52 PM 81.0 °F 87.3 °F 75.9 °F 85% 29.95 in 10.0 mi SSE 4.6 mph - N/A   Clear
10:52 PM 79.0 °F - 75.0 °F 88% 29.95 in 10.0 mi South 4.6 mph - N/A   Clear
11:52 PM 79.0 °F - 75.0 °F 88% 29.94 in 10.0 mi SSW 5.8 mph - N/A   Scattered Clouds